Location: Mantua Corners
(41.3103°N, 81.2212°W)
Time: 06:34:59
(UTC+00:00)

ACS3 Solar Sail - Visible Passes

Search period start: 04 October 2024 00:00
Search period end: 14 October 2024 00:00
Orbit: 963 x 1036 km, 97.4° (Epoch: 03 October)

Date Brightness Start Highest point End Pass type
(mag) Time Alt. Az. Time Alt. Az. Time Alt. Az.
04 Oct 2.9 00:12:44 19° E 00:15:33 26° ENE 00:20:37 10° NNE visible
04 Oct 2.4 01:57:55 49° SW 01:59:04 55° W 02:05:20 10° NNW visible
05 Oct 2.2 00:45:19 35° ESE 00:47:19 45° ENE 00:53:18 10° N visible
05 Oct 3.3 02:30:30 29° WSW 02:31:21 30° W 02:36:54 10° NNW visible
05 Oct 3.5 23:33:28 10° E 23:36:20 13° ENE 23:39:11 10° NNE visible
06 Oct 1.7 01:17:53 57° SE 01:19:16 78° ENE 01:25:38 10° N visible
06 Oct 4.1 03:03:05 16° W 03:03:49 16° W 03:07:40 10° NW visible
07 Oct 3.0 00:05:17 18° E 00:07:55 24° ENE 00:12:45 10° NNE visible
07 Oct 2.3 01:50:28 55° SW 01:51:22 60° W 01:57:39 10° NNW visible
08 Oct 2.3 00:37:52 34° ESE 00:39:40 41° ENE 00:45:31 10° N visible
08 Oct 3.2 02:23:03 33° WSW 02:23:37 33° W 02:29:17 10° NNW visible
08 Oct 3.6 23:26:28 10° ENE 23:28:44 12° ENE 23:31:00 10° NE visible
09 Oct 1.7 01:10:26 59° SE 01:11:35 72° ENE 01:17:53 10° N visible
09 Oct 4.0 02:55:38 18° W 02:56:03 18° W 03:00:14 10° NW visible
09 Oct 3.0 23:57:50 17° E 00:00:17 22° ENE 00:04:52 10° NNE visible
10 Oct 2.1 01:43:01 62° SW 01:43:39 66° W 01:49:57 10° NNW visible
11 Oct 2.4 00:30:25 32° E 00:31:59 37° ENE 00:37:42 10° N visible
11 Oct 3.1 02:15:36 36° W 02:15:53 36° W 02:21:39 10° NNW visible
11 Oct 3.6 23:19:41 10° ENE 23:21:08 11° NE 23:22:33 10° NE visible
12 Oct 1.8 01:02:59 59° ESE 01:03:53 66° ENE 01:10:08 10° N visible
12 Oct 3.9 02:48:10 20° W 02:48:16 20° W 02:52:46 10° NW visible
12 Oct 3.1 23:50:23 16° E 23:52:38 20° ENE 23:56:57 10° NNE visible
13 Oct 2.0 01:35:33 70° SW 01:35:56 72° W 01:42:14 10° NNW visible
